Regional Weather Roundup
Issued by NWS Goodland, KS

Home | Current Version | Previous Version | Graphics & Text | Print | Product List | Glossary On
Versions: 1 2 3 4 5 6 7 8 9 10 11 12 13 14 15 16 17 18 19 20 21 22 23 24 25 26 27 28 29 30 31 32 33 34 35 36 37 38 39 40 41 42 43 44 45 46 47 48 49 50
031
ASUS43 KGLD 051959
RWRGLD

GOODLAND FORECAST AREA HOURLY WEATHER ROUNDUP
NATIONAL WEATHER SERVICE GOODLAND KS
100 PM MST FRI FEB 05 2016

...OFFICIAL OBSERVATIONS...

CITY           SKY/WX    TMP DP  RH WIND       PRES   REMARKS
GOODLAND KS    SUNNY     35  21  56 NW20      30.27F
HILL CITY KS   SUNNY     40  27  59 W13       30.27F
IMPERIAL NEB   PTSUNNY   34  21  59 NW20G28   30.25F
MCCOOK NEB     SUNNY     37  26  64 NW16      30.24F
AKRON CO       SUNNY     30  20  66 NW14      30.27F WCI  19
BURLINGTON CO  SUNNY     34  20  56 NW17      30.28F
LIMON CO       SUNNY     29  15  56 NW13      30.29F WCI  19
$$

...UNOFFICIAL OBSERVATIONS...

CITY           SKY/WX    TMP DP  RH WIND       PRES   REMARKS
COLBY KS       SUNNY     36  28  75 NW17      30.27F
GOVE KS          N/A     39  32  76 MISG        N/A
LENORA KS        N/A     37  32  82 MISG        N/A
NORTON KS      SUNNY     37  23  56 W14       30.23F
SHARON SPRINGS   N/A     37  26  64 NW14        N/A
KIT CARSON CO    N/A     34  22  61 MISG        N/A
YUMA CO          N/A     32  23  70 NW16        N/A
$$




USA.gov is the U.S. government's official web portal to all federal, state and local government web resources and services.